Regional Weather Roundup
Issued by NWS Charleston, SC

Current Version | Previous Version | Graphics & Text | Print | Product List | Glossary On
Versions: 1 2 3 4 5 6 7 8 9 10 11 12 13 14 15 16 17 18 19 20 21 22 23 24 25 26 27 28 29 30 31 32 33 34 35 36 37 38 39 40 41 42 43 44 45 46 47 48 49 50
152
ASUS42 KCHS 210227
RWRCHS

REGIONAL WEATHER ROUNDUP
NATIONAL WEATHER SERVICE CHARLESTON SC
900 PM EST FRI JAN 20 2017

NOTE: "FAIR" INDICATES FEW OR NO CLOUDS BELOW 12,000 FEET WITH NO
SIGNIFICANT WEATHER AND/OR OBSTRUCTIONS TO VISIBILITY.

NOT ALL STATIONS ARE QUALITY CONTROLLED. USE DATA WITH CAUTION...
ESPECIALLY DEWPOINT OBSERVATIONS.

SCZ027-030-031-034>040-042>050-210300-
...SOUTHEAST SOUTH CAROLINA...

CITY           SKY/WX    TMP DP  RH WIND       PRES   REMARKS
N CHARLESTON   CLEAR     61  59  93 S3        29.92R
WATERFRONT PRK   N/A     63  61  93 VRB3      29.90R
MOUNT PLEASANT FAIR      63  61  94 CALM      29.92S
JOHNS ISLAND   FAIR      63  63 100 SW6       29.92S
PINOPOLIS        N/A     66  63  88 SW7       29.81R
MONCKS CORNER  FAIR      61  57  88 SW3       29.92R
SUMMERVILLE    FAIR     N/A N/A N/A S3        29.92S
BEAUFORT MCAS  PTCLDY    62  60  93 SE3       29.92R
BEAUFORT ARPT  CLOUDY    63  61  94 S5        29.92S
HILTON HEAD IS PTCLDY    63  63 100 S3        29.93S
WALTERBORO     PTCLDY    61  59  94 CALM      29.93R
ALLENDALE      FAIR      63  59  88 CALM      29.90R

...SOUTHERN MIDLANDS AND PEE DEE...

CITY           SKY/WX    TMP DP  RH WIND       PRES   REMARKS
GEORGETOWN     FAIR      57  55  94 CALM      29.92R
KINGSTREE      FAIR      61  55  82 CALM      29.90R
ORANGEBURG     PTCLDY    61  58  90 S7        29.90R
BARNWELL       FAIR      66  61  82 S3        29.90S
AIKEN          FAIR      61  55  82 S6        29.92S
MANNING        FAIR      59  55  88 S3        29.91R
COLUMBIA       PTCLDY    62  56  80 CALM      29.87R
SUMTER         CLEAR     62  56  82 S5        29.87R
FLORENCE       PTCLDY    60  58  92 S5        29.89R
MYRTLE BEACH   CLEAR     59  54  82 S7        29.92R
N MYRTLE BEACH PTCLDY    54  54 100 CALM      29.90R FOG

$$

GAZ063-065-086>088-099>101-113>116-118-119-134>141-150-210300-
...SOUTHEAST GEORGIA...

CITY           SKY/WX    TMP DP  RH WIND       PRES   REMARKS
SAVANNAH ARPT  MOCLDY    64  59  83 S3        29.92R
HUNTER AAF     MOCLDY    65  65 100 S5        29.90R
FORT STEWART   CLOUDY    64  61  89 CALM      29.90R
STATESBORO     CLOUDY    62  62 100 CALM      29.91R
SYLVANIA       MOCLDY   N/A N/A N/A CALM      29.92R
CLAXTON        CLOUDY   N/A N/A N/A CALM      29.91S

...CSRA...CENTRAL AND FAR SOUTHEAST GEORGIA...

CITY           SKY/WX    TMP DP  RH WIND       PRES   REMARKS
THOMSON        CLEAR     65  61  85 CALM      29.92S
AUGUSTA-BUSH   CLEAR     67  59  75 SW9       29.88R
AUGUSTA-DANIEL CLEAR     67  56  67 SW6       29.89R
SWAINSBORO     CLOUDY    64  61  88 CALM      29.91S
VIDALIA        HVY RAIN  68  64  88 S8        29.92R
EASTMAN        RAIN      67  67 100 CALM      29.93R
HAZLEHURST     CLOUDY    68  68 100 CALM      29.90R
ALMA           CLOUDY    68  67  96 S5        29.91R
WAYCROSS       CLOUDY    72  72 100 SW6       29.92S
JESUP          CLOUDY    68  64  88 CALM      29.93R
BAXLEY         CLOUDY    70  70 100 S3        29.91S
BRUNSWICK      CLOUDY    70  64  83 S3        29.93S
SAINT SIMONS   CLOUDY    68  63  84 CALM      29.93R

$$

SCZ027-028-034-036>038-045-046-048>050-GAZ119-141-210300-
...LAKE AND SUPPLEMENTAL COASTAL OBSERVATIONS...

STATION/POSITION TIME  TEMP    WIND        PRES    WAVE   SWELL
                       AIR SEA DIR/SP/G            HT/PER HT/PER/DIR
                 (UTC) (F)     (DEG/KT/KT) (MB)    (FT/S) (FT/S/D)
WINYAH BAY       0145   60        CALM     1012.0S
LAKE MURRAY      0150   61        CALM     1011.2R
ACE BASIN NERRS  0145   59        CALM     1013.0R
FORT PULASKI     0200   62 58  210/  4/  4 1013.5
SAPELO ISLAND    0200   67     160/  6     1013.0

$$

ANZ835-935-AMZ111-154-330-350-352-354-370-450-454-472-210300-
...C-MAN AND BUOY OBSERVATIONS...

STATION/POSITION TIME  TEMP    WIND        PRES    WAVE   SWELL
                       AIR SEA DIR/SP/G            HT/PER HT/PER/DIR
                 (UTC) (F)     (DEG/KT/KT) (MB)    (FT/S) (FT/S/D)
BUOY 41004       0150   69 68  220/ 10/ 10 1012.5R   3/ 5   2/210/ 5
BUOY 41008       0150   63 61  160/  8/  8 1013.1R   2/ 5   2/150/ 5
FOLLY BEACH CMAN 0200   62     230/  6/  8 1013.7R
CAPERS NEARSHORE 0108   57 56  240/  4/  8 1012.6R
FRIPP NEARSHORE  0208   60 59  220/  4/  6 1013.0R


STATION/POSITION TIME  TEMP    WIND        PRES    WAVE   SWELL
                       AIR SEA DIR/SP/G            HT/PER HT/PER/DIR
                 (UTC) (F)     (DEG/KT/KT) (MB)    (FT/S) (FT/S/D)
5E ST. MARYS GA  0200      65                N/A     2/ 9
FRYING PAN BUOY  0200   70 71  250/ 14/ 17 1012.3
BUOY 41025       0150   67 76  290/ 12/ 14 1011.3R   5/13   5/ 80/13
CAPE LOOKOUT NC  0200   62     250/  6/  8 1011.3R
BUOY 41002       0150   72 70  200/ 10/ 12 1013.7R   5/13   5/ 10/13
BUOY 41010       NOT AVBL
ST AUGUSTINE FL  0200   71 63  240/  4/  5 1015.0R


$$




USA.gov is the U.S. government's official web portal to all federal, state and local government web resources and services.